RH
33 32 32 32 32 31 30 29 28 26 25 23 21 20 20 19 19 19 18 17 17 17 17 16 15 14 14 15 18 23 29 33 34 33 33 32 31 31 30 29 30 30 27 25 25 24 22 21 22 23 24 25 26 27 26 24 23 23 22 21 20 19 19
37 37 37 36 36 36 35 35 34 33 32 30 28 26 24 22 21 21 20 19 18 19 19 19 18 16 16 17 18 18 20 28 34 35 34 34 33 32 32 31 31 31 29 26 26 26 23 22 24 24 26 28 28 27 27 25 24 24 24 24 24 23 22
41 41 40 39 39 39 39 39 38 38 38 37 35 33 31 29 27 25 23 22 21 20 20 21 19 18 17 18 20 19 19 25 33 37 36 35 35 34 33 32 32 32 31 28 27 27 24 23 26 26 27 30 30 29 28 27 25 25 26 28 29 28 26
43 43 42 41 41 40 40 40 40 40 40 39 38 38 36 35 34 33 31 29 27 25 24 24 22 20 19 20 21 20 20 22 28 35 37 35 36 36 34 33 33 32 32 30 28 28 26 25 27 28 28 31 33 31 29 28 26 25 27 30 33 32 29
45 44 44 43 42 42 41 41 41 40 40 39 39 38 37 36 36 35 34 33 32 31 31 31 29 27 26 27 27 25 23 23 24 30 36 37 36 36 36 35 34 33 32 32 31 29 27 27 28 31 31 32 33 32 31 29 27 26 27 31 36 36 33
44 44 43 42 41 41 40 39 39 38 37 36 36 35 34 34 33 33 33 32 32 32 32 33 33 31 31 32 32 31 30 29 27 29 35 40 40 38 39 38 36 35 33 33 32 30 29 29 30 32 34 34 34 32 31 30 28 27 28 33 38 39 38
42 42 41 40 39 39 38 37 36 36 35 34 34 33 32 32 31 31 30 30 31 32 33 34 34 33 32 33 34 34 33 32 31 28 30 36 40 39 39 38 37 36 34 33 32 31 31 30 31 34 35 34 34 34 32 31 30 29 31 37 42 43 42
42 41 41 40 39 37 36 36 34 34 34 33 32 31 31 31 32 33 33 34 35 37 38 38 38 37 37 37 38 38 38 36 35 33 31 33 37 39 39 39 38 37 36 36 35 34 33 32 32 34 36 36 37 35 32 31 34 35 35 41 46 47 46
41 40 39 37 36 35 34 33 32 32 32 31 30 31 33 34 35 37 37 37 37 38 38 38 37 38 38 38 38 37 38 37 36 37 36 35 36 37 39 42 42 39 38 37 37 36 34 33 33 33 36 38 38 34 32 34 39 41 40 46 51 51 49
38 38 37 35 34 32 32 31 30 30 30 29 30 35 38 38 37 38 37 37 37 36 36 36 36 35 35 35 35 35 35 36 35 35 36 35 35 35 39 45 45 40 37 38 40 39 35 34 34 33 34 37 36 34 33 36 43 45 47 53 56 54 51
37 36 35 34 32 31 31 31 30 30 30 28 30 37 41 41 40 39 39 39 38 38 37 37 36 35 35 34 34 34 34 34 34 34 34 34 34 34 39 48 49 43 41 42 44 43 39 36 33 32 33 34 35 36 34 38 48 52 53 56 57 55 53
36 35 34 33 32 32 31 31 30 30 30 30 34 41 45 45 44 43 42 42 42 42 41 41 40 39 39 38 36 36 37 35 35 35 34 34 34 33 36 45 52 52 50 50 50 47 42 36 31 32 33 31 34 36 35 41 52 56 55 57 58 56 56
34 33 32 33 32 32 31 30 30 31 32 35 39 43 46 49 50 48 47 47 47 47 48 48 46 45 44 44 44 44 43 41 38 37 36 35 35 35 35 41 49 55 55 54 54 52 45 36 32 33 32 31 36 37 36 44 55 57 56 58 60 62 65
31 31 31 33 33 33 31 30 32 35 36 38 41 44 49 53 54 53 51 50 50 52 53 53 52 50 48 48 49 49 49 48 46 44 42 41 39 37 35 36 43 52 57 56 57 55 48 40 38 37 33 33 36 36 39 49 56 55 58 64 69 73 78
33 33 34 35 36 36 33 34 38 40 39 40 43 48 54 59 59 57 55 53 53 54 56 55 54 52 50 50 50 50 50 51 51 50 48 48 46 42 39 36 37 44 51 55 59 59 53 49 49 47 43 40 39 39 45 54 56 58 65 74 79 82 83
38 39 39 39 40 41 40 40 43 43 42 44 48 54 61 64 64 63 62 60 59 59 59 58 56 55 52 50 50 50 50 50 51 52 52 53 52 50 47 41 36 39 45 49 54 55 53 55 58 56 54 53 51 51 55 59 60 65 72 78 81 82 82
42 43 44 43 44 47 47 44 44 46 46 48 54 62 69 71 71 70 69 67 65 64 62 60 59 57 54 51 51 52 52 50 50 51 52 55 57 57 55 49 43 45 48 48 49 48 47 53 58 57 57 59 59 60 62 64 67 71 77 82 83 82 82
46 45 48 49 49 51 52 48 47 50 53 55 62 71 76 76 75 74 73 70 67 66 65 61 59 56 53 52 53 53 53 52 52 51 51 55 60 62 61 58 55 55 52 49 51 52 50 52 55 55 57 59 60 63 66 70 74 78 83 87 84 83 86
51 49 51 53 54 55 56 54 52 56 62 66 71 77 79 78 77 76 75 72 70 69 68 64 59 55 52 52 54 56 56 56 57 55 53 55 61 64 62 61 62 62 58 53 54 58 59 59 58 59 61 60 60 66 72 78 83 86 87 88 87 89 93
56 55 54 56 57 58 60 60 61 65 70 73 76 80 81 81 80 78 77 76 73 72 72 68 62 57 55 55 56 57 58 58 59 58 55 57 61 63 61 61 62 63 61 58 57 59 62 64 64 64 65 64 66 73 80 84 87 88 89 92 94 95 95
59 60 58 58 60 63 63 66 70 72 73 75 79 82 82 82 82 81 80 78 78 78 75 70 64 60 58 58 58 58 57 58 59 61 60 60 59 57 57 61 62 62 61 61 61 61 63 65 65 65 68 72 77 83 85 86 90 94 96 98 97 95 95
64 64 60 60 64 67 68 70 75 76 77 79 82 83 83 83 83 82 82 81 81 81 76 71 67 63 60 61 62 61 59 58 60 65 67 64 60 57 58 62 64 64 64 64 64 65 64 65 67 71 77 82 84 85 88 92 98 101 101 99 96 95 96
69 67 65 65 68 70 71 74 76 78 81 83 84 84 84 83 83 81 80 81 83 82 78 74 69 64 64 66 68 66 64 62 65 71 71 66 63 63 65 67 68 68 67 66 66 67 69 73 77 80 83 85 86 89 94 100 102 101 99 99 99 99 98
72 71 70 72 73 71 72 75 78 79 83 84 85 85 85 84 83 79 78 80 82 82 82 78 70 66 69 73 74 74 73 71 73 75 72 69 70 72 72 72 73 73 73 73 73 76 80 83 83 83 85 89 93 97 99 102 102 101 99 99 99 97 93
74 74 75 77 79 77 76 79 80 81 84 87 88 87 86 85 83 80 79 80 82 83 82 79 73 71 73 77 79 80 79 77 76 76 75 74 75 75 75 76 78 79 80 81 81 82 83 84 85 88 92 95 96 97 99 101 103 101 98 98 97 94 92
76 76 77 80 85 86 84 83 84 85 88 91 91 90 89 87 84 83 82 83 83 83 80 76 75 76 77 79 81 81 80 79 77 76 77 78 77 77 79 81 82 83 82 82 83 85 87 89 92 95 96 96 95 96 99 101 102 100 100 99 99 97 97
77 77 79 84 90 91 89 87 89 90 91 93 94 93 91 89 86 84 83 83 83 80 76 74 76 79 80 82 83 82 81 81 81 80 80 79 79 80 82 83 83 84 85 86 89 92 95 96 97 97 97 96 94 95 99 101 101 101 101 100 100 100 101
77 78 80 87 92 92 90 90 92 94 94 96 97 96 93 92 90 89 87 86 85 81 79 80 82 83 83 83 83 82 81 81 81 81 82 82 83 85 88 89 90 91 93 95 96 97 98 98 99 100 100 98 95 95 99 101 101 101 101 100 101 101 101
81 81 84 91 95 94 92 90 92 95 98 99 100 99 97 95 95 95 94 94 93 92 92 93 93 93 92 90 87 85 83 81 82 85 88 91 94 96 96 97 97 98 99 99 99 99 99 99 100 101 101 101 99 98 99 100 100 100 100 100 101 101 100
86 86 89 95 98 98 97 95 95 97 100 101 100 100 99 99 99 99 99 99 99 99 99 100 100 100 100 99 97 95 92 90 91 94 95 97 99 99 99 98 97 98 99 100 100 101 101 100 100 100 101 101 100 99 99 100 100 100 100 100 100 101 100
88 90 94 97 98 99 101 100 99 100 100 100 100 100 100 100 100 100 101 100 100 100 100 99 100 100 100 100 100 100 98 96 96 96 96 95 94 95 98 100 99 98 99 100 100 100 101 101 100 101 100 100 99 99 99 99 100 100 100 100 100 101 100
87 92 97 99 98 99 100 100 99 100 100 101 100 100 100 100 100 101 101 100 99 100 100 99 100 100 100 100 100 100 99 98 98 98 97 96 95 94 95 98 100 100 100 100 98 98 100 101 100 100 101 100 99 98 97 97 98 100 100 100 100 101 100
89 92 97 98 97 99 100 100 100 100 100 101 101 100 100 100 100 101 100 98 98 99 100 100 100 100 100 100 100 100 100 100 100 99 98 99 99 98 96 96 98 99 100 98 96 97 99 100 100 100 100 100 100 99 98 96 96 98 100 101 100 100 100
92 93 96 97 97 97 98 100 101 101 101 101 101 100 100 99 99 99 98 97 98 99 100 100 100 101 101 100 100 100 100 100 101 100 99 99 101 100 99 98 96 96 96 96 95 97 99 100 100 100 100 100 100 100 99 97 96 97 100 101 100 100 100
94 95 97 97 96 96 97 98 99 100 101 101 100 99 98 97 97 97 97 98 99 100 100 100 100 101 101 100 100 101 101 100 100 100 99 99 98 99 100 100 98 95 94 94 94 97 100 100 100 100 100 100 100 100 101 100 98 98 99 100 100 100 99
94 95 96 97 96 95 96 97 97 98 99 100 100 98 95 95 97 99 99 99 100 100 100 100 101 101 101 100 100 100 100 100 100 100 100 99 98 98 100 101 100 97 94 93 95 97 100 100 100 100 100 100 100 100 100 100 99 99 99 99 99 99 99